Resolute,

7:21 AM CDT on June 29, 2017 (GMT -0500)
Resolute

Weather History for CYRB - February, 2013

Change the Weather History Date:

Wednesday, February 20, 2013

  Actual Average Record
Temperature  
Mean Temperature -43 °F -  
Max Temperature -41 °F -19 °F -5 °F (1999)
Min Temperature -45 °F -32 °F -45 °F (2013)
Degree Days  
Heating Degree Days 108    
Moisture  
Dew Point -48 °F    
Average Humidity 76    
Maximum Humidity 90    
Minimum Humidity 58    
Precipitation  
Precipitation 0.00 in 0.01 in - ()
Sea Level Pressure  
Sea Level Pressure 30.49 in    
Wind  
Wind Speed 8 mph ()    
Max Wind Speed 12 mph    
Max Gust Speed -    
Visibility 15.0 miles    
Events Snow    
Averages and records for this station are not official NWS values.
T = Trace of Precipitation, MM = Missing Value Source: Averaged Metar Reports

Daily Weather History Graph

Daily Weather History Graph

Search for Another Location

Airport or City:

Trip Planner

Search our weather history database for the weather conditions in past years. The results will help you decide how hot, cold, wet, or windy it might be!

Date:

Astronomy

Feb. 20, 2013 Rise Set
Actual Time 9:11 AM CST 3:57 PM CST
Civil Twilight 7:41 AM CST 5:28 PM CST
Nautical Twilight 6:08 AM CST 7:01 PM CST
Astronomical Twilight 4:34 AM CST 8:36 PM CST
Moon No Moon Rise No Moon Set
Length of Visible Light 9h 47m
Length of Day
6h 46m
Waxing Gibbous, 76% of the Moon is Illuminated
Feb 20
Waxing Gibbous
Feb 25
Full
Mar 4
Last Quarter
Mar 11
New
Mar 19
First Quarter

Hourly Weather History & Observations

Time (CST) Temp. Windchill Dew Point Humidity Pressure Visibility Wind Dir Wind Speed Gust Speed Precip Events Conditions
12:00 AM -42 °F - -47 °F 58% 30.50 in 15 mi NW 8.1 mph - - Snow Snow
12:00 AM -41.8 °F -65.1 °F -47.2 °F 74% 30.50 in 15.0 mi NW 8.1 mph - N/A   Clear
1:00 AM -41.8 °F -63.3 °F -47.2 °F 74% 30.49 in 15.0 mi NNW 6.9 mph - N/A   Clear
2:00 AM -43.6 °F -63.3 °F -49.0 °F 74% 30.50 in 15.0 mi NW 5.8 mph - N/A   Clear
3:00 AM -43.6 °F -68.9 °F -49.0 °F 74% 30.50 in 15.0 mi North 9.2 mph - N/A   Clear
4:00 AM -41.8 °F -69.5 °F -47.2 °F 74% 30.50 in 15.0 mi NW 11.5 mph - N/A   Clear
5:00 AM -43.6 °F -67.3 °F -49.0 °F 74% 30.50 in 15.0 mi NW 8.1 mph - N/A   Clear
6:00 AM -44 °F - -49 °F 62% 30.53 in 15 mi NNW 9.2 mph - - Snow Snow
6:00 AM -43.6 °F -68.9 °F -49.0 °F 74% 30.53 in 15.0 mi NNW 9.2 mph - N/A   Clear
7:00 AM -45.4 °F -71.1 °F -47.2 °F 90% 30.51 in 15.0 mi NW 9.2 mph - N/A   Clear
8:00 AM -43.6 °F -67.3 °F -49.0 °F 74% 30.49 in 15.0 mi NW 8.1 mph - N/A   Partly Cloudy
9:00 AM -45.4 °F -69.5 °F -49.0 °F 82% 30.48 in 15.0 mi NW 8.1 mph - N/A   Partly Cloudy
10:00 AM -43.6 °F -71.7 °F -47.2 °F 82% 30.48 in 15.0 mi NNW 11.5 mph - N/A   Partly Cloudy
11:00 AM -43.6 °F -67.3 °F -47.2 °F 82% 30.48 in 15.0 mi NW 8.1 mph - N/A   Clear
12:00 PM -44 °F - -48 °F 65% 30.47 in 15 mi NW 8.1 mph - - Snow Snow
12:00 PM -43.6 °F -67.3 °F -47.2 °F 82% 30.47 in 15.0 mi NW 8.1 mph - N/A   Clear
1:00 PM -43.6 °F -68.9 °F -45.4 °F 90% 30.48 in 15.0 mi NW 9.2 mph - N/A   Clear
2:00 PM -43.6 °F -67.3 °F -47.2 °F 82% 30.48 in 15.0 mi NNW 8.1 mph - N/A   Clear
3:00 PM -43.6 °F -67.3 °F -45.4 °F 90% 30.49 in 15.0 mi NNW 8.1 mph - N/A   Clear
4:00 PM -45.4 °F -71.1 °F -50.8 °F 74% 30.49 in 15.0 mi NNW 9.2 mph - N/A   Partly Cloudy
5:00 PM -45.4 °F -72.6 °F - N/A% 30.48 in 15.0 mi NNW 10.4 mph - N/A   Partly Cloudy
6:00 PM -44 °F - - % 30.48 in 15 mi NW 9.2 mph - - Snow Snow
6:00 PM -43.6 °F -68.9 °F - N/A% 30.48 in 15.0 mi NW 9.2 mph - N/A   Partly Cloudy
7:00 PM -41.8 °F -69.5 °F -49.0 °F 67% 30.48 in 15.0 mi North 11.5 mph - N/A   Partly Cloudy
8:00 PM -41.8 °F -69.5 °F - N/A% 30.48 in 15.0 mi North 11.5 mph - N/A   Clear
9:00 PM -41.8 °F -66.7 °F -49.0 °F 67% 30.49 in 15.0 mi NNW 9.2 mph - N/A   Clear
10:00 PM -43.6 °F -68.9 °F - N/A% 30.48 in 15.0 mi NNW 9.2 mph - N/A   Clear
11:00 PM -43.6 °F -63.3 °F - N/A% 30.49 in 15.0 mi NNW 5.8 mph - N/A   Clear